| time (UTC) | temp C | wind direction | speed KPH | gust KPH | rain 1hr cm | rain 24hr cm | rain mn cm | humidity % | barometer mb |
| 20260508102036 | 22 | 131 | 4.8 | 8.0 | 0.00 | 0.00 | 0.00 | 40 | 1020.4 |
| 20260508101029 | 22 | 128 | 3.2 | 9.7 | 0.00 | 0.00 | 0.00 | 40 | 1020.4 |
| 20260508100045 | 22 | 142 | 6.4 | 11.3 | 0.00 | 0.00 | 0.00 | 41 | 1020.2 |
| 20260508095035 | 22 | 132 | 6.4 | 14.5 | 0.00 | 0.00 | 0.00 | 41 | 1020.1 |
| 20260508094028 | 22 | 129 | 8.0 | 14.5 | 0.00 | 0.00 | 0.00 | 40 | 1020.3 |
| 20260508093021 | 22 | 130 | 6.4 | 12.9 | 0.00 | 0.00 | 0.00 | 40 | 1020.3 |
| 20260508092018 | 22 | 132 | 6.4 | 11.3 | 0.00 | 0.00 | 0.00 | 40 | 1020.4 |
| 20260508091030 | 22 | 134 | 6.4 | 14.5 | 0.00 | 0.00 | 0.00 | 40 | 1020.4 |
| 20260508090022 | 22 | 139 | 11.3 | 16.1 | 0.00 | 0.00 | 0.00 | 41 | 1020.4 |
| 20260508085019 | 22 | 135 | 8.0 | 14.5 | 0.00 | 0.00 | 0.00 | 40 | 1020.5 |
| 20260508084053 | 22 | 96 | 4.8 | 16.1 | 0.00 | 0.00 | 0.00 | 42 | 1020.4 |
| 20260508083024 | 21 | 117 | 4.8 | 11.3 | 0.00 | 0.00 | 0.00 | 46 | 1020.5 |
| 20260508082035 | 21 | 125 | 4.8 | 6.4 | 0.00 | 0.00 | 0.00 | 43 | 1020.5 |
| 20260508081030 | 21 | 133 | 3.2 | 8.0 | 0.00 | 0.00 | 0.00 | 43 | 1020.3 |
| 20260508080023 | 22 | 126 | 6.4 | 12.9 | 0.00 | 0.00 | 0.00 | 39 | 1019.9 |
| 20260508075057 | 22 | 121 | 3.2 | 6.4 | 0.00 | 0.00 | 0.00 | 37 | 1019.6 |
| 20260508074028 | 22 | 123 | 3.2 | 9.7 | 0.00 | 0.00 | 0.00 | 38 | 1019.5 |
| 20260508073025 | 22 | 94 | 4.8 | 11.3 | 0.00 | 0.00 | 0.00 | 37 | 1019.3 |
| 20260508072018 | 22 | 96 | 3.2 | 9.7 | 0.00 | 0.00 | 0.00 | 36 | 1019.2 |
| 20260508071032 | 22 | 157 | 1.6 | 16.1 | 0.00 | 0.00 | 0.00 | 36 | 1019.0 |
| 20260508070023 | 22 | 160 | 12.9 | 19.3 | 0.00 | 0.00 | 0.00 | 36 | 1018.8 |
| 20260508065040 | 22 | 127 | 12.9 | 17.7 | 0.00 | 0.00 | 0.00 | 36 | 1018.6 |
| 20260508064032 | 22 | 159 | 9.7 | 24.1 | 0.00 | 0.00 | 0.00 | 37 | 1018.5 |
| 20260508063025 | 21 | 153 | 12.9 | 19.3 | 0.00 | 0.00 | 0.00 | 37 | 1018.2 |
| 20260508062023 | 21 | 166 | 9.7 | 16.1 | 0.00 | 0.00 | 0.00 | 38 | 1018.1 |
| 20260508061017 | 20 | 148 | 6.4 | 11.3 | 0.00 | 0.00 | 0.00 | 41 | 1018.0 |
| 20260508060026 | 20 | 163 | 8.0 | 16.1 | 0.00 | 0.00 | 0.00 | 39 | 1017.6 |
| 20260508055019 | 19 | 153 | 8.0 | 16.1 | 0.00 | 0.00 | 0.00 | 40 | 1017.5 |
| 20260508054016 | 19 | 165 | 9.7 | 14.5 | 0.00 | 0.00 | 0.00 | 40 | 1017.3 |
| 20260508053027 | 18 | 174 | 9.7 | 14.5 | 0.00 | 0.00 | 0.00 | 39 | 1017.1 |
| 20260508052040 | 18 | 156 | 9.7 | 16.1 | 0.00 | 0.00 | 0.00 | 39 | 1017.1 |
| 20260508051031 | 18 | 150 | 11.3 | 19.3 | 0.00 | 0.00 | 0.00 | 38 | 1017.2 |
| 20260508050046 | 18 | 158 | 9.7 | 16.1 | 0.00 | 0.00 | 0.00 | 38 | 1017.3 |
| 20260508045017 | 18 | 185 | 9.7 | 12.9 | 0.00 | 0.00 | 0.00 | 37 | 1017.5 |
| 20260508044028 | 18 | 178 | 8.0 | 11.3 | 0.00 | 0.00 | 0.00 | 38 | 1017.6 |
| 20260508043020 | 18 | 169 | 9.7 | 14.5 | 0.00 | 0.00 | 0.00 | 37 | 1017.4 |
| 20260508042037 | 17 | 180 | 9.7 | 12.9 | 0.00 | 0.00 | 0.00 | 39 | 1017.2 |
| 20260508041029 | 18 | 169 | 8.0 | 12.9 | 0.00 | 0.00 | 0.00 | 37 | 1017.3 |
| 20260508040043 | 18 | 157 | 9.7 | 12.9 | 0.00 | 0.00 | 0.00 | 36 | 1017.1 |
| 20260508035029 | 18 | 175 | 4.8 | 11.3 | 0.00 | 0.00 | 0.00 | 37 | 1016.9 |
| 20260508034043 | 18 | 190 | 9.7 | 14.5 | 0.00 | 0.00 | 0.00 | 37 | 1016.8 |
| 20260508033019 | 17 | 169 | 8.0 | 12.9 | 0.00 | 0.00 | 0.00 | 40 | 1016.8 |
| 20260508032030 | 17 | 169 | 6.4 | 8.0 | 0.00 | 0.00 | 0.00 | 40 | 1016.9 |
| 20260508031022 | 18 | 170 | 4.8 | 8.0 | 0.00 | 0.00 | 0.00 | 38 | 1017.2 |
| 20260508030034 | 18 | 218 | 3.2 | 6.4 | 0.00 | 0.00 | 0.00 | 37 | 1017.4 |
| 20260508025051 | 18 | 171 | 3.2 | 8.0 | 0.00 | 0.00 | 0.00 | 36 | 1017.3 |
| 20260508024023 | 18 | 134 | 3.2 | 8.0 | 0.00 | 0.00 | 0.00 | 36 | 1017.4 |
| 20260508023055 | 18 | 137 | 3.2 | 9.7 | 0.00 | 0.00 | 0.00 | 36 | 1017.4 |
| 20260508022026 | 18 | 147 | 6.4 | 14.5 | 0.00 | 0.00 | 0.00 | 36 | 1017.5 |
| 20260508021023 | 18 | 130 | 8.0 | 12.9 | 0.00 | 0.00 | 0.00 | 37 | 1017.8 |
| 20260508020016 | 17 | 155 | 6.4 | 11.3 | 0.00 | 0.00 | 0.00 | 43 | 1017.9 |
| 20260508015049 | 17 | 190 | 6.4 | 12.9 | 0.00 | 0.00 | 0.00 | 44 | 1017.7 |
| 20260508014021 | 18 | 168 | 9.7 | 12.9 | 0.00 | 0.00 | 0.00 | 41 | 1017.6 |
| 20260508013015 | 18 | 168 | 12.9 | 14.5 | 0.00 | 0.00 | 0.00 | 37 | 1017.6 |
| 20260508012027 | 18 | 144 | 6.4 | 12.9 | 0.00 | 0.00 | 0.00 | 39 | 1017.8 |
| 20260508011019 | 18 | 138 | 9.7 | 14.5 | 0.00 | 0.00 | 0.00 | 36 | 1017.7 |
| 20260508010032 | 18 | 170 | 14.5 | 19.3 | 0.00 | 0.00 | 0.00 | 36 | 1017.9 |
| 20260508005029 | 18 | 165 | 11.3 | 17.7 | 0.00 | 0.00 | 0.00 | 38 | 1017.9 |
| 20260508004022 | 18 | 179 | 11.3 | 14.5 | 0.00 | 0.00 | 0.00 | 40 | 1018.0 |
| 20260508003034 | 18 | 170 | 9.7 | 14.5 | 0.00 | 0.00 | 0.00 | 38 | 1018.1 |
| 20260508002032 | 18 | 170 | 8.0 | 11.3 | 0.00 | 0.00 | 0.00 | 39 | 1018.1 |
| 20260508001024 | 18 | 158 | 8.0 | 16.1 | 0.00 | 0.00 | 0.00 | 40 | 1018.1 |
| 20260508000018 | 18 | 187 | 6.4 | 9.7 | 0.00 | 0.00 | 0.00 | 41 | 1018.3 |
| 20260507235028 | 18 | 184 | 8.0 | 11.3 | 0.00 | 0.00 | 0.00 | 41 | 1018.4 |
| 20260507234026 | 18 | 180 | 8.0 | 11.3 | 0.00 | 0.00 | 0.00 | 40 | 1018.8 |
| 20260507233039 | 18 | 184 | 6.4 | 9.7 | 0.00 | 0.00 | 0.00 | 41 | 1018.9 |
| 20260507232031 | 18 | 204 | 6.4 | 9.7 | 0.00 | 0.00 | 0.00 | 42 | 1018.9 |
| 20260507231024 | 18 | 173 | 6.4 | 12.9 | 0.00 | 0.00 | 0.00 | 44 | 1018.9 |
| 20260507230021 | 17 | 179 | 8.0 | 9.7 | 0.00 | 0.00 | 0.00 | 48 | 1019.0 |
| 20260507225036 | 17 | 171 | 6.4 | 11.3 | 0.00 | 0.00 | 0.00 | 47 | 1019.2 |
| 20260507224028 | 17 | 188 | 6.4 | 11.3 | 0.00 | 0.00 | 0.00 | 45 | 1019.4 |
| 20260507223026 | 17 | 203 | 6.4 | 11.3 | 0.00 | 0.00 | 0.00 | 44 | 1019.4 |
| 20260507222019 | 18 | 171 | 6.4 | 9.7 | 0.00 | 0.00 | 0.00 | 43 | 1019.3 |
| 20260507221052 | 18 | 167 | 8.0 | 11.3 | 0.00 | 0.00 | 0.00 | 42 | 1019.3 |
| 20260507220024 | 17 | 167 | 8.0 | 11.3 | 0.00 | 0.00 | 0.00 | 43 | 1019.3 |
| 20260507215022 | 17 | 178 | 9.7 | 12.9 | 0.00 | 0.00 | 0.00 | 45 | 1019.4 |
| 20260507214035 | 17 | 191 | 6.4 | 8.0 | 0.00 | 0.00 | 0.00 | 48 | 1019.5 |
| 20260507213029 | 17 | 164 | 6.4 | 14.5 | 0.00 | 0.00 | 0.00 | 47 | 1019.4 |
| 20260507212017 | 17 | 153 | 9.7 | 14.5 | 0.00 | 0.00 | 0.00 | 46 | 1019.5 |
| 20260507211056 | 17 | 164 | 12.9 | 16.1 | 0.00 | 0.00 | 0.00 | 44 | 1019.4 |
| 20260507210028 | 17 | 171 | 12.9 | 16.1 | 0.00 | 0.00 | 0.00 | 45 | 1019.5 |
| 20260507205019 | 17 | 165 | 9.7 | 16.1 | 0.00 | 0.00 | 0.00 | 48 | 1019.5 |
| 20260507204031 | 17 | 177 | 9.7 | 12.9 | 0.00 | 0.00 | 0.00 | 51 | 1019.6 |
| 20260507203048 | 17 | 179 | 8.0 | 12.9 | 0.00 | 0.00 | 0.00 | 52 | 1019.5 |
| 20260507202019 | 17 | 205 | 8.0 | 12.9 | 0.00 | 0.00 | 0.00 | 53 | 1019.4 |
| 20260507201032 | 17 | 176 | 9.7 | 12.9 | 0.00 | 0.00 | 0.00 | 53 | 1019.4 |
| 20260507200023 | 17 | 169 | 8.0 | 16.1 | 0.00 | 0.00 | 0.00 | 52 | 1019.5 |
| 20260507195018 | 17 | 184 | 8.0 | 14.5 | 0.00 | 0.00 | 0.00 | 51 | 1019.7 |
| 20260507194030 | 17 | 156 | 6.4 | 12.9 | 0.00 | 0.00 | 0.00 | 53 | 1019.6 |
| 20260507193021 | 17 | 203 | 9.7 | 14.5 | 0.00 | 0.00 | 0.00 | 53 | 1019.7 |
| 20260507192034 | 17 | 198 | 9.7 | 14.5 | 0.00 | 0.00 | 0.00 | 54 | 1019.5 |
| 20260507191031 | 17 | 185 | 6.4 | 14.5 | 0.00 | 0.00 | 0.00 | 53 | 1019.7 |
| 20260507190024 | 17 | 192 | 9.7 | 12.9 | 0.00 | 0.00 | 0.00 | 52 | 1019.4 |
| 20260507185018 | 17 | 171 | 8.0 | 11.3 | 0.00 | 0.00 | 0.00 | 50 | 1019.3 |
| 20260507184028 | 17 | 175 | 9.7 | 12.9 | 0.00 | 0.00 | 0.00 | 51 | 1019.2 |
| 20260507183023 | 17 | 169 | 11.3 | 12.9 | 0.00 | 0.00 | 0.00 | 53 | 1019.1 |
| 20260507182036 | 18 | 159 | 8.0 | 16.1 | 0.00 | 0.00 | 0.00 | 47 | 1019.1 |
| 20260507181029 | 18 | 154 | 8.0 | 12.9 | 0.00 | 0.00 | 0.00 | 47 | 1019.2 |
| 20260507180023 | 18 | 183 | 4.8 | 8.0 | 0.00 | 0.00 | 0.00 | 50 | 1019.1 |
| 20260507175036 | 18 | 180 | 4.8 | 8.0 | 0.00 | 0.00 | 0.00 | 47 | 1019.2 |
| 20260507174029 | 18 | 176 | 4.8 | 11.3 | 0.00 | 0.00 | 0.00 | 50 | 1019.2 |
| 20260507173043 | 18 | 165 | 6.4 | 9.7 | 0.00 | 0.00 | 0.00 | 49 | 1018.9 |
| 20260507172035 | 18 | 157 | 6.4 | 9.7 | 0.00 | 0.00 | 0.00 | 56 | 1018.8 |
| 20260507171033 | 19 | 351 | 3.2 | 4.8 | 0.00 | 0.00 | 0.00 | 60 | 1018.9 |
| 20260507170026 | 20 | 351 | 1.6 | 4.8 | 0.00 | 0.00 | 0.00 | 57 | 1018.9 |
| 20260507165017 | 20 | 351 | 1.6 | 3.2 | 0.00 | 0.00 | 0.00 | 56 | 1018.9 |
| 20260507164028 | 20 | 351 | 0.0 | 3.2 | 0.00 | 0.00 | 0.00 | 58 | 1018.9 |
| 20260507163024 | 20 | 351 | 0.0 | 1.6 | 0.00 | 0.00 | 0.00 | 58 | 1018.9 |
| 20260507162018 | 20 | 351 | 0.0 | 1.6 | 0.00 | 0.00 | 0.00 | 58 | 1018.9 |
| 20260507161051 | 20 | 351 | 1.6 | 3.2 | 0.00 | 0.00 | 0.00 | 57 | 1019.1 |
| 20260507160023 | 20 | 351 | 3.2 | 4.8 | 0.00 | 0.00 | 0.00 | 57 | 1018.8 |
| 20260507155039 | 20 | 351 | 3.2 | 4.8 | 0.00 | 0.00 | 0.00 | 54 | 1018.6 |
| 20260507154031 | 21 | 351 | 3.2 | 6.4 | 0.00 | 0.00 | 0.00 | 50 | 1018.4 |
| 20260507153023 | 21 | 351 | 3.2 | 6.4 | 0.00 | 0.00 | 0.00 | 47 | 1018.4 |
| 20260507152034 | 21 | 340 | 3.2 | 9.7 | 0.00 | 0.00 | 0.00 | 45 | 1018.4 |
| 20260507151030 | 21 | 331 | 4.8 | 8.0 | 0.00 | 0.00 | 0.00 | 44 | 1018.5 |
| 20260507150023 | 21 | 333 | 3.2 | 8.0 | 0.00 | 0.00 | 0.00 | 46 | 1018.4 |
| 20260507145033 | 21 | 355 | 4.8 | 8.0 | 0.00 | 0.00 | 0.00 | 43 | 1018.4 |
| 20260507144027 | 21 | 338 | 6.4 | 12.9 | 0.00 | 0.00 | 0.00 | 45 | 1018.7 |
| 20260507143024 | 21 | 5 | 8.0 | 12.9 | 0.00 | 0.00 | 0.00 | 43 | 1018.6 |
| 20260507142017 | 22 | 348 | 8.0 | 16.1 | 0.00 | 0.00 | 0.00 | 40 | 1018.7 |
| 20260507141030 | 22 | 332 | 9.7 | 17.7 | 0.00 | 0.00 | 0.00 | 42 | 1018.8 |
| 20260507140022 | 22 | 331 | 11.3 | 19.3 | 0.00 | 0.00 | 0.00 | 42 | 1018.7 |
| 20260507135020 | 22 | 5 | 8.0 | 17.7 | 0.00 | 0.00 | 0.00 | 43 | 1018.7 |
| 20260507134033 | 22 | 348 | 11.3 | 17.7 | 0.00 | 0.00 | 0.00 | 45 | 1018.6 |
| 20260507133026 | 22 | 344 | 16.1 | 24.1 | 0.00 | 0.00 | 0.00 | 47 | 1018.7 |
| 20260507132039 | 23 | 27 | 17.7 | 24.1 | 0.00 | 0.00 | 0.00 | 46 | 1018.4 |
| 20260507131035 | 24 | 319 | 8.0 | 17.7 | 0.00 | 0.00 | 0.00 | 40 | 1018.6 |
| 20260507130027 | 24 | 250 | 4.8 | 19.3 | 0.00 | 0.00 | 0.00 | 33 | 1018.5 |
| 20260507125040 | 24 | 148 | 9.7 | 32.2 | 0.00 | 0.00 | 0.00 | 30 | 1018.6 |
| 20260507124052 | 24 | 123 | 19.3 | 32.2 | 0.00 | 0.00 | 0.00 | 31 | 1018.7 |
| 20260507123026 | 25 | 150 | 12.9 | 27.4 | 0.00 | 0.00 | 0.00 | 30 | 1018.7 |
| 20260507122019 | 24 | 152 | 20.9 | 30.6 | 0.00 | 0.00 | 0.00 | 30 | 1018.9 |
| 20260507121032 | 25 | 148 | 14.5 | 29.0 | 0.00 | 0.00 | 0.00 | 30 | 1018.9 |
| 20260507120025 | 25 | 213 | 11.3 | 24.1 | 0.00 | 0.00 | 0.00 | 29 | 1019.1 |
| 20260507115042 | 25 | 157 | 16.1 | 27.4 | 0.00 | 0.00 | 0.00 | 30 | 1019.2 |
| 20260507114035 | 24 | 81 | 3.2 | 16.1 | 0.00 | 0.00 | 0.00 | 41 | 1019.1 |
| 20260507113027 | 24 | 321 | 6.4 | 14.5 | 0.00 | 0.00 | 0.00 | 41 | 1019.0 |
| 20260507112020 | 23 | 67 | 6.4 | 17.7 | 0.00 | 0.00 | 0.00 | 44 | 1019.0 |
| 20260507111017 | 23 | 348 | 8.0 | 16.1 | 0.00 | 0.00 | 0.00 | 43 | 1018.9 |
| 20260507110028 | 22 | 17 | 11.3 | 17.7 | 0.00 | 0.00 | 0.00 | 45 | 1019.0 |
| 20260507105020 | 23 | 5 | 4.8 | 19.3 | 0.00 | 0.00 | 0.00 | 46 | 1019.0 |
| 20260507104054 | 22 | 360 | 12.9 | 19.3 | 0.00 | 0.00 | 0.00 | 46 | 1019.0 |
| 20260507103030 | 23 | 349 | 8.0 | 16.1 | 0.00 | 0.00 | 0.00 | 46 | 1018.9 |